STARLINK-31028, 58516

Orbit data source: Space-Track

STARLINK-31028, 58516 is a payload satellite owned by SpaceX/Seattle (US) in LEO that was launched on Thu, 07 Dec 2023 UTC via an FALCON 9 launch vehicle from the Air Force Eastern Test Range (AFETR). Payload-class satellites include a variety of spacecraft equipped with specific instruments for various scientific and technological missions. These include communications satellites like Starlink; space stations such as the ISS; scientific satellites like the Hubble; Earth observation satellites from companies like Planet Labs, Umbra, and HawkEye 360; GPS; miniature CubeSats for education and research; and military/defense satellites.

Loading next visibility...
Identifier
58516, 2023-191J
Orbit
LEO
Country
Flag of USUS
Related business
Manufacturer
SpaceX/Seattle
Mission
Operational Commercial Communications
Bus & Motor
STARLINK V2M, Unknown motor
Mass
730 kg wet, ~700 kg dry
Launch date (UTC)
2023-12-07 (3 years ago)
Launch vehicle
FALCON 9
Launch site
Air Force Eastern Test Range (AFETR)
Object type
Payload
Rocket body
Debris
Shape & HBR
Box + 2 Pan, 17.7 m
Radar Cross Section
33.884 m², Large (>1 m²)

Expand to show TLE details & history
Last TLE update: 2 days ago

TLE from 2 days ago
0 STARLINK-31028
1 58516U 23191J   26171.46617313  .00000661  00000-0  33554-4 0  9996
2 58516  43.0026 242.6635 0001530 262.1150  97.9528 15.27579247141191
Epoch: 2026-06-20T11:11Z
TLE epoch observation values (Epoch: 2026-06-20T11:11:17.358Z)
Latitude
-0.00002°
Longitude
166.16076°
Altitude
482.972 km
Speed
7.626 km/s
True Right ascension
16h 10m 39s
True Declination
0° 00' 00"
Sunlit
Object was in full shadow at epoch
Visualization orbit readout
Latitude
Unknown
Longitude
Unknown
Altitude
Unknown
Speed
Unknown
Apparent Right ascension
Unknown
Apparent Declination
Unknown
Sunlit
N/A
Visualization observer readout
Local Sidereal Time
21:42:25
Azimuth
Unknown
Elevation
Unknown
Doppler factor
Unknown
Orbital elements
Apogee altitude
486.046 km
Perigee altitude
483.946 km
Semi-major axis
6,863.133 km
Eccentricity
0.00015
Inclination
43.0026°
RAAN
242.6635°
Arg. of periapsis
262.115°
True anomaly
97.97016°
Mean anomaly
97.9528°
Eccentric anomaly
97.96148°
Mean motion
3.81733 °/min
Orbital period
94.31 mins
BSTAR
0.000033554
Loading maneuver chart data...
Computing Atmospheric mass density...
Loading historical data...
Loading historical data...
Loading historical data...
Loading historical data...
Loading historical data...
Loading historical data...
Loading historical data...

Documentation

Showing up to 5 results
|